Weather History for Covington, KY

Change the Weather History Date:

Saturday, October 20, 2012

  Actual Average Record
Temperature  
Mean Temperature 47 °F 54 °F  
Max Temperature 56 °F 65 °F 86 °F (1953)
Min Temperature 38 °F 44 °F 25 °F (1972)
Degree Days  
Heating Degree Days 18 11  
Month to date heating degree days 215 165  
Since 1 July heating degree days 292 223  
Cooling Degree Days 0 0  
Month to date cooling degree days 2 16  
Year to date cooling degree days 1434 1121  
Moisture  
Dew Point 43 °F    
Average Humidity 80    
Maximum Humidity 93    
Minimum Humidity 66    
Precipitation  
Precipitation 0.02 in 0.10 in 4.30 in (1985)
Month to date precipitation 1.61 2.13  
Year to date precipitation 30.57 34.55  
Snow  
Snow 0.00 in 0.00 in 0.90 in (1989)
Month to date snowfall 0.0 0.2  
Since 1 July snowfall 0.0 0.2  
Since 1 September snowfall 0.0 0.2  
Snow Depth 0.00 in    
Sea Level Pressure  
Sea Level Pressure 29.84 in    
Wind  
Wind Speed 6 mph (SW)    
Max Wind Speed 17 mph    
Max Gust Speed 22 mph    
Visibility 10 miles    
Events Rain    
T = Trace of Precipitation, MM = Missing Value Source: NWS Daily Summary

Daily Weather History Graph

Daily Weather History Graph

Search for Another Location

Airport:

Trip Planner

Search our weather history database for the weather conditions in past years. The results will help you decide how hot, cold, wet, or windy it might be!

Date:

Astronomy

Oct. 20, 2012 Rise Set
Actual Time 7:53 AM EDT 6:52 PM EDT
Civil Twilight 7:26 AM EDT 7:19 PM EDT
Nautical Twilight 6:55 AM EDT 7:50 PM EDT
Astronomical Twilight 6:24 AM EDT 8:21 PM EDT
Moon 1:27 PM EDT (10/20) 11:38 PM EDT (10/20)
Length of Visible Light 11h 52m
Length of Day
10h 58m
Waxing Crescent, 34% of the Moon is Illuminated
Oct 20
Waxing Crescent
Oct 21
First Quarter
Oct 29
Full
Nov 6
Last Quarter
Nov 13
New

Hourly Weather History & Observations

Time (EDT) Temp. Windchill Dew Point Humidity Pressure Visibility Wind Dir Wind Speed Gust Speed Precip Events Conditions
12:52 AM 46.9 °F - 44.1 °F 90% 29.73 in 6.0 mi SW 5.8 mph - 0.01 in Rain Light Rain
1:20 AM 46.4 °F 41.9 °F 44.6 °F 93% 29.74 in 7.0 mi SW 9.2 mph 18.4 mph 0.02 in Rain Light Rain
1:39 AM 46.4 °F 42.4 °F 44.6 °F 93% 29.74 in 10.0 mi WSW 8.1 mph - 0.02 in   Overcast
1:52 AM 46.9 °F - 43.0 °F 86% 29.74 in 10.0 mi WSW 8.1 mph - 0.02 in   Overcast
2:52 AM 46.9 °F - 43.0 °F 86% 29.75 in 10.0 mi SW 6.9 mph - N/A   Mostly Cloudy
3:52 AM 46.0 °F 42.5 °F 43.0 °F 89% 29.75 in 10.0 mi SW 6.9 mph - N/A   Overcast
4:52 AM 46.0 °F 42.5 °F 43.0 °F 89% 29.75 in 10.0 mi SW 6.9 mph - N/A   Mostly Cloudy
5:52 AM 46.9 °F - 43.0 °F 86% 29.76 in 10.0 mi SW 6.9 mph - N/A   Overcast
6:52 AM 46.9 °F - 43.0 °F 86% 29.78 in 10.0 mi SSW 8.1 mph - N/A   Overcast
7:52 AM 46.9 °F - 43.0 °F 86% 29.79 in 10.0 mi SW 6.9 mph - N/A   Overcast
8:52 AM 48.0 °F - 44.1 °F 86% 29.81 in 10.0 mi SW 6.9 mph - N/A   Overcast
9:52 AM 48.9 °F - 44.1 °F 83% 29.83 in 10.0 mi WSW 6.9 mph - N/A   Overcast
10:52 AM 50.0 °F - 44.1 °F 80% 29.85 in 10.0 mi SW 6.9 mph 16.1 mph N/A   Overcast
11:52 AM 51.1 °F - 43.0 °F 74% 29.87 in 10.0 mi WSW 10.4 mph - N/A   Overcast
12:52 PM 51.1 °F - 43.0 °F 74% 29.87 in 10.0 mi WSW 9.2 mph 19.6 mph N/A   Overcast
1:52 PM 53.1 °F - 42.1 °F 66% 29.87 in 10.0 mi West 12.7 mph 16.1 mph N/A   Overcast
2:35 PM 51.8 °F - 42.8 °F 71% 29.87 in 10.0 mi West 13.8 mph 19.6 mph 0.00 in   Overcast
2:52 PM 51.8 °F - 42.8 °F 71% 29.88 in 10.0 mi WSW 9.2 mph - N/A   Overcast
3:52 PM 55.9 °F - 44.1 °F 64% 29.88 in 10.0 mi West 9.2 mph - N/A   Overcast
4:52 PM 53.6 °F - 42.8 °F 67% 29.90 in 10.0 mi West 10.4 mph - N/A   Overcast
5:52 PM 54.0 °F - 42.1 °F 64% 29.90 in 10.0 mi West 8.1 mph - N/A   Mostly Cloudy
6:52 PM 51.1 °F - 41.0 °F 68% 29.93 in 10.0 mi WSW 3.5 mph - N/A   Scattered Clouds
8:52 PM 44.6 °F 43.1 °F 41.0 °F 87% 29.96 in 10.0 mi SSW 3.5 mph - N/A   Partly Cloudy
9:52 PM 41.0 °F 39.0 °F 39.0 °F 93% 29.99 in 9.0 mi SSW 3.5 mph - N/A   Clear
10:52 PM 42.1 °F 40.2 °F 39.9 °F 92% 29.99 in 9.0 mi SSW 3.5 mph - N/A   Clear
11:52 PM 39.2 °F - 37.4 °F 93% 30.00 in 10.0 mi Calm Calm - N/A   Clear